* Astronomy

Members Login
Post Info TOPIC: Asteroid 2014 JG55


L

Posts: 131433
Date:
RE: Asteroid 2014 JG55
Permalink  
 


The 4 - 9 metre wide asteroid 2014 JG55 will make a close pass (40.5 lunar distances, 0.10430 AU), travelling at 12.81 km/second, to the Earth on the 30th April 2018 @ 11:16 UT ±14:33.

See more

The Lunar Distance (LD), the distance between Earth and the Moon, equals 384,401 km, (or 0.00256 AU).



__________________


L

Posts: 131433
Date:
Permalink  
 

The 4 - 9 metre wide asteroid 2014 JG55 made a close pass (0.3 lunar distances, 0.0007 AU), travelling at 10.46 km/second, to the Earth-Moon system on the 10th May 2014 @ 20:18 UT ±00:01.

See more

The Lunar Distance (LD), the distance between Earth and the Moon, equals 384,401 km, (or 0.00256 AU).



__________________


L

Posts: 131433
Date:
Permalink  
 

Orbital elements:
2014 JG55                                                Earth MOID = 0.0002 AU
Epoch 2014 May 23.0 TT = JDT 2456800.5                  MPC
M 348.77840              (2000.0)            P               Q
n   0.49394282     Peri.  223.02395     +0.04556964     +0.99216892
a   1.5849598      Node    49.93575     -0.87033830     +0.09657461
e   0.4128117      Incl.    8.74017     -0.49034136     -0.07920972
P   2.00           H   29.2           G   0.15           U   5

MPEC 2014 - J98



__________________
Page 1 of 1  sorted by
 
Quick Reply

Please log in to post quick replies.



Create your own FREE Forum
Report Abuse
Powered by ActiveBoard